Home   Weather   Krefeld   Past weeks

Flag for Germany Past Weather in Krefeld, North Rhine-Westphalia, Germany — Yesterday and Last 2 Weeks

Now
66 °F

Passing clouds.


Feels Like: 66 °F
Forecast: 59 / 67 °F
Wind: 10 mph from Southwest

Location: Monchengladbach Airport

Current Time: Jul 23, 2017 at 11:01:19 pm

Latest Report: Jul 23, 2017 at 8:20 pm


Visibility: N/A

Pressure: 29.92 "Hg

Humidity: 60%

Dew Point: 52 °F

Location of KrefeldLocation

Past Weather in Krefeld — Graph

°F

Krefeld Temperature Yesterday

Maximum temperature yesterday: 82 °F (at 3:50 pm)
Minimum temperature yesterday: 68 °F (at 8:20 am)
Average temperature yesterday: 77 °F

High & Low Weather Summary for the Past Weeks

 TemperatureHumidityPressure
High90 °F (Jul 19, 2:20 pm)100% (Jul 12, 7:50 am)30.24 "Hg (Jul 12, 7:50 am)
Low54 °F (Jul 13, 7:50 am)32% (Jul 10, 2:50 pm)29.68 "Hg (Jul 12, 12:50 pm)
Average71 °F60%29.97 "Hg
* Reported Jul 8 8:20 pm — Jul 23 8:20 pm, Krefeld. Weather by CustomWeather, © 2017

Note: Actual official high and low records may vary slightly from our data, if they occured in-between our weather recording intervals... More about our weather records

Advertising

Krefeld Weather History for the Previous 24 Hours

Scroll right to see more
 ConditionsComfort  
Time TempWeatherWind HumidityBarometerVisibility
8:20 pm
Sun, Jul 23
66 °FPassing clouds.10 mph60%29.92 "HgN/A
7:50 pm66 °FPassing clouds.10 mph60%29.92 "HgN/A
7:20 pm68 °FPassing clouds.12 mph56%29.92 "HgN/A
6:50 pm66 °FPassing clouds.9 mph64%29.92 "HgN/A
6:20 pm68 °FPassing clouds.10 mph60%29.92 "HgN/A
5:20 pm70 °FPassing clouds.10 mph60%29.92 "HgN/A
4:50 pm68 °FPassing clouds.12 mph64%29.92 "HgN/A
4:20 pm64 °FPassing clouds.8 mph78%29.95 "HgN/A
3:20 pm66 °FScattered showers. Partly cloudy.13 mph56%29.95 "HgN/A
2:50 pm66 °FPassing clouds.13 mph60%29.95 "HgN/A
2:20 pm66 °FPassing clouds.10 mph60%29.95 "HgN/A
1:50 pm66 °FPassing clouds.13 mph60%29.95 "HgN/A
1:20 pm64 °FScattered showers. Passing clouds.8 mph68%29.95 "HgN/A
12:50 pm66 °FPassing clouds.12 mph60%29.92 "HgN/A
12:20 pm64 °FScattered clouds.10 mph64%29.92 "HgN/A
11:50 am66 °FScattered clouds.13 mph60%29.95 "HgN/A
11:40 am66 °FScattered clouds.12 mph60%29.95 "HgN/A
11:20 am64 °FScattered clouds.9 mph68%29.92 "HgN/A
10:50 am64 °FScattered clouds.12 mph64%29.92 "HgN/A
10:31 am64 °FScattered clouds.12 mph64%29.92 "HgN/A
9:50 am63 °FPassing clouds.9 mph73%29.92 "HgN/A
9:20 am61 °FSunny.10 mph83%29.92 "Hg10 mi
8:20 am61 °FPassing clouds.9 mph77%29.92 "HgN/A
7:50 am61 °FSunny.9 mph83%29.92 "Hg10 mi
Weather by CustomWeather, © 2017

See weather overviewHow to use our weather pages